Location: Wald
(31.7579°N, 86.6655°W)
Time: 12:10:34
(UTC+00:00)

Landsat 7 - Pass Details

Date: 14 July 2020
Orbit: 701 x 703 km, 98.1° (Epoch: 09 August)

Event Time Altitude Azimuth Distance (km) Brightness Sun altitude
Exits shadow 03:07:34 69° 163° (SSE) 753 3.7 -23.6°
Maximum altitude 03:08:10 88° 82° (E) 707 3.7 -23.7°
Drops below altitude 10° 03:12:57 10° 348° (NNW) 2,172 7.1 -24.4°
Sets 03:15:12 0° 349° (NNW) 3,094 8.1 -24.7°
